| time (UTC) | temp C | wind direction | speed KPH | gust KPH | rain 1hr cm | rain 24hr cm | rain mn cm | humidity % | barometer mb |
| 20260903233505 | 32 | 126 | 0.0 | 1.6 | 0.00 | 0.00 | 0.00 | 63 | 1014.9 |
| 20260903233005 | 32 | 126 | 0.0 | 1.6 | 0.00 | 0.00 | 0.00 | 61 | 1014.8 |
| 20260903232504 | 32 | 126 | 0.0 | 1.6 | 0.00 | 0.00 | 0.00 | 60 | 1014.8 |
| 20260903232005 | 32 | 126 | 0.0 | 4.8 | 0.00 | 0.00 | 0.00 | 60 | 1014.8 |
| 20260903231505 | 32 | 16 | 1.6 | 3.2 | 0.00 | 0.00 | 0.00 | 59 | 1014.7 |
| 20260903230504 | 33 | 16 | 0.0 | 1.6 | 0.00 | 0.00 | 0.00 | 59 | 1014.7 |
| 20260903230005 | 33 | 16 | 0.0 | 1.6 | 0.00 | 0.00 | 0.00 | 59 | 1014.7 |
| 20260903225505 | 33 | 16 | 0.0 | 1.6 | 0.00 | 0.00 | 0.00 | 57 | 1014.7 |
| 20260903225005 | 33 | 16 | 1.6 | 4.8 | 0.00 | 0.00 | 0.00 | 56 | 1014.7 |
| 20260903224506 | 33 | 9 | 3.2 | 8.0 | 0.00 | 0.00 | 0.00 | 55 | 1014.7 |
| 20260903223505 | 33 | 16 | 3.2 | 11.3 | 0.00 | 0.00 | 0.00 | 55 | 1014.6 |
| 20260903223005 | 34 | 13 | 1.6 | 4.8 | 0.00 | 0.00 | 0.00 | 54 | 1014.6 |
| 20260903222504 | 34 | 13 | 0.0 | 1.6 | 0.00 | 0.00 | 0.00 | 54 | 1014.6 |
| 20260903221505 | 34 | 13 | 1.6 | 3.2 | 0.00 | 0.00 | 0.00 | 54 | 1014.6 |
| 20260903221006 | 34 | 13 | 1.6 | 4.8 | 0.00 | 0.00 | 0.00 | 52 | 1014.6 |
| 20260903220506 | 34 | 13 | 1.6 | 4.8 | 0.00 | 0.00 | 0.00 | 52 | 1014.6 |
| 20260903220005 | 34 | 13 | 3.2 | 8.0 | 0.00 | 0.00 | 0.00 | 52 | 1014.7 |
| 20260903215505 | 34 | 5 | 0.0 | 1.6 | 0.00 | 0.00 | 0.00 | 53 | 1014.7 |
| 20260903215005 | 34 | 5 | 0.0 | 1.6 | 0.00 | 0.00 | 0.00 | 52 | 1014.7 |
| 20260903214504 | 34 | 5 | 0.0 | 3.2 | 0.00 | 0.00 | 0.00 | 52 | 1014.7 |
| 20260903214005 | 35 | 5 | 1.6 | 4.8 | 0.00 | 0.00 | 0.00 | 52 | 1014.7 |
| 20260903213505 | 35 | 5 | 1.6 | 4.8 | 0.00 | 0.00 | 0.00 | 52 | 1014.7 |
| 20260903213004 | 35 | 1 | 3.2 | 4.8 | 0.00 | 0.00 | 0.00 | 51 | 1014.7 |
| 20260903212005 | 35 | 86 | 1.6 | 3.2 | 0.00 | 0.00 | 0.00 | 52 | 1014.7 |
| 20260903211505 | 35 | 86 | 1.6 | 3.2 | 0.00 | 0.00 | 0.00 | 51 | 1014.9 |
| 20260903211004 | 35 | 95 | 1.6 | 4.8 | 0.00 | 0.00 | 0.00 | 52 | 1014.9 |
| 20260903210505 | 35 | 14 | 1.6 | 4.8 | 0.00 | 0.00 | 0.00 | 50 | 1014.9 |
| 20260903204505 | 35 | 148 | 1.6 | 3.2 | 0.00 | 0.00 | 0.00 | 51 | 1016.0 |
| 20260903204005 | 35 | 120 | 1.6 | 4.8 | 0.00 | 0.00 | 0.00 | 52 | 1016.0 |
| 20260903203005 | 35 | 119 | 3.2 | 8.0 | 0.00 | 0.00 | 0.00 | 52 | 1016.0 |
| 20260903202506 | 35 | 9 | 1.6 | 4.8 | 0.00 | 0.00 | 0.00 | 53 | 1016.0 |
| 20260903202005 | 35 | 7 | 1.6 | 4.8 | 0.00 | 0.00 | 0.00 | 53 | 1016.0 |
| 20260903201505 | 35 | 126 | 1.6 | 3.2 | 0.00 | 0.00 | 0.00 | 52 | 1016.0 |
| 20260903200504 | 35 | 121 | 3.2 | 4.8 | 0.00 | 0.00 | 0.00 | 51 | 1016.0 |
| 20260903200004 | 35 | 132 | 3.2 | 4.8 | 0.00 | 0.00 | 0.00 | 51 | 1016.0 |
| 20260903195005 | 35 | 68 | 1.6 | 4.8 | 0.00 | 0.00 | 0.00 | 54 | 1016.0 |
| 20260903194506 | 34 | 123 | 3.2 | 4.8 | 0.00 | 0.00 | 0.00 | 56 | 1016.0 |
| 20260903194005 | 34 | 106 | 3.2 | 4.8 | 0.00 | 0.00 | 0.00 | 58 | 1016.0 |
| 20260903193505 | 35 | 111 | 3.2 | 4.8 | 0.00 | 0.00 | 0.00 | 55 | 1016.0 |
| 20260903193005 | 35 | 4 | 3.2 | 8.0 | 0.00 | 0.00 | 0.00 | 55 | 1016.2 |
| 20260903192005 | 36 | 19 | 1.6 | 4.8 | 0.00 | 0.00 | 0.00 | 53 | 1016.4 |
| 20260903190506 | 35 | 128 | 1.6 | 8.0 | 0.00 | 0.00 | 0.00 | 54 | 1016.4 |
| 20260903190004 | 35 | 147 | 3.2 | 8.0 | 0.00 | 0.00 | 0.00 | 53 | 1016.4 |
| 20260903185505 | 35 | 116 | 1.6 | 4.8 | 0.00 | 0.00 | 0.00 | 51 | 1016.4 |
| 20260903184004 | 35 | 116 | 3.2 | 8.0 | 0.00 | 0.00 | 0.00 | 55 | 1016.8 |
| 20260903183505 | 35 | 167 | 1.6 | 4.8 | 0.00 | 0.00 | 0.00 | 52 | 1016.8 |
| 20260903183004 | 35 | 132 | 3.2 | 8.0 | 0.00 | 0.00 | 0.00 | 51 | 1016.8 |
| 20260903182505 | 35 | 168 | 4.8 | 9.7 | 0.00 | 0.00 | 0.00 | 55 | 1016.8 |
| 20260903181505 | 35 | 11 | 1.6 | 3.2 | 0.00 | 0.00 | 0.00 | 52 | 1016.8 |
| 20260903181006 | 35 | 99 | 1.6 | 8.0 | 0.00 | 0.00 | 0.00 | 55 | 1016.8 |
| 20260903180006 | 35 | 63 | 3.2 | 11.3 | 0.00 | 0.00 | 0.00 | 54 | 1017.1 |
| 20260903175505 | 35 | 123 | 3.2 | 11.3 | 0.00 | 0.00 | 0.00 | 52 | 1017.1 |
| 20260903174504 | 34 | 97 | 1.6 | 4.8 | 0.00 | 0.00 | 0.00 | 56 | 1017.1 |
| 20260903173504 | 35 | 142 | 3.2 | 8.0 | 0.00 | 0.00 | 0.00 | 54 | 1017.8 |
| 20260903173004 | 34 | 128 | 3.2 | 11.3 | 0.00 | 0.00 | 0.00 | 54 | 1017.8 |
| 20260903172505 | 34 | 348 | 1.6 | 8.0 | 0.00 | 0.00 | 0.00 | 54 | 1017.8 |
| 20260903172005 | 33 | 91 | 3.2 | 4.8 | 0.00 | 0.00 | 0.00 | 56 | 1017.8 |
| 20260903171005 | 33 | 28 | 3.2 | 11.3 | 0.00 | 0.00 | 0.00 | 55 | 1017.8 |
| 20260903170505 | 35 | 13 | 3.2 | 11.3 | 0.00 | 0.00 | 0.00 | 54 | 1017.8 |
| 20260903170005 | 35 | 12 | 1.6 | 4.8 | 0.00 | 0.00 | 0.00 | 54 | 1017.8 |
| 20260903165504 | 35 | 334 | 1.6 | 4.8 | 0.00 | 0.00 | 0.00 | 56 | 1017.8 |
| 20260903164505 | 33 | 18 | 4.8 | 8.0 | 0.00 | 0.00 | 0.00 | 57 | 1017.8 |
| 20260903164006 | 34 | 355 | 3.2 | 8.0 | 0.00 | 0.00 | 0.00 | 54 | 1017.9 |
| 20260903163504 | 34 | 5 | 1.6 | 4.8 | 0.00 | 0.00 | 0.00 | 55 | 1017.9 |
| 20260903163005 | 34 | 3 | 1.6 | 4.8 | 0.00 | 0.00 | 0.00 | 55 | 1018.2 |
| 20260903162505 | 34 | 96 | 1.6 | 4.8 | 0.00 | 0.00 | 0.00 | 56 | 1018.2 |
| 20260903160505 | 33 | 17 | 1.6 | 4.8 | 0.00 | 0.00 | 0.00 | 59 | 1018.2 |
| 20260903160006 | 33 | 115 | 3.2 | 4.8 | 0.00 | 0.00 | 0.00 | 58 | 1018.2 |
| 20260903155505 | 34 | 315 | 1.6 | 3.2 | 0.00 | 0.00 | 0.00 | 60 | 1018.2 |
| 20260903155005 | 33 | 315 | 0.0 | 4.8 | 0.00 | 0.00 | 0.00 | 60 | 1018.2 |
| 20260903154505 | 33 | 321 | 0.0 | 3.2 | 0.00 | 0.00 | 0.00 | 59 | 1018.2 |
| 20260903154004 | 32 | 319 | 3.2 | 4.8 | 0.00 | 0.00 | 0.00 | 61 | 1018.2 |
| 20260903153505 | 32 | 260 | 3.2 | 4.8 | 0.00 | 0.00 | 0.00 | 61 | 1018.2 |
| 20260903153005 | 32 | 331 | 3.2 | 4.8 | 0.00 | 0.00 | 0.00 | 61 | 1018.0 |
| 20260903152504 | 32 | 348 | 1.6 | 4.8 | 0.00 | 0.00 | 0.00 | 63 | 1018.0 |
| 20260903152005 | 32 | 320 | 3.2 | 4.8 | 0.00 | 0.00 | 0.00 | 62 | 1018.0 |
| 20260903151505 | 32 | 355 | 3.2 | 4.8 | 0.00 | 0.00 | 0.00 | 62 | 1018.0 |
| 20260903150505 | 31 | 10 | 3.2 | 4.8 | 0.00 | 0.00 | 0.00 | 64 | 1018.0 |
| 20260903150005 | 31 | 10 | 1.6 | 3.2 | 0.00 | 0.00 | 0.00 | 66 | 1017.9 |
| 20260903145505 | 31 | 10 | 1.6 | 3.2 | 0.00 | 0.00 | 0.00 | 65 | 1017.9 |
| 20260903145005 | 31 | 10 | 1.6 | 3.2 | 0.00 | 0.00 | 0.00 | 67 | 1017.9 |
| 20260903144505 | 31 | 285 | 1.6 | 4.8 | 0.00 | 0.00 | 0.00 | 69 | 1017.9 |
| 20260903144006 | 30 | 341 | 1.6 | 4.8 | 0.00 | 0.00 | 0.00 | 68 | 1018.0 |
| 20260903143005 | 30 | 15 | 3.2 | 4.8 | 0.00 | 0.00 | 0.00 | 68 | 1018.0 |
| 20260903142505 | 30 | 173 | 0.0 | 3.2 | 0.00 | 0.00 | 0.00 | 71 | 1018.0 |
| 20260903142006 | 30 | 173 | 1.6 | 4.8 | 0.00 | 0.00 | 0.00 | 72 | 1018.0 |
| 20260903141505 | 30 | 173 | 1.6 | 4.8 | 0.00 | 0.00 | 0.00 | 74 | 1018.0 |
| 20260903141006 | 29 | 173 | 1.6 | 3.2 | 0.00 | 0.00 | 0.00 | 73 | 1018.0 |
| 20260903140505 | 29 | 173 | 1.6 | 3.2 | 0.00 | 0.00 | 0.00 | 76 | 1018.0 |
| 20260903140005 | 29 | 173 | 0.0 | 1.6 | 0.00 | 0.00 | 0.00 | 78 | 1018.2 |
| 20260903135005 | 27 | 173 | 0.0 | 1.6 | 0.00 | 0.00 | 0.00 | 84 | 1018.2 |
| 20260903134505 | 27 | 173 | 0.0 | 1.6 | 0.00 | 0.00 | 0.00 | 87 | 1018.2 |
| 20260903134005 | 26 | 173 | 0.0 | 3.2 | 0.00 | 0.00 | 0.00 | 89 | 1018.2 |
| 20260903133505 | 25 | 173 | 0.0 | 3.2 | 0.00 | 0.00 | 0.00 | 89 | 1018.2 |
| 20260903133006 | 24 | 173 | 0.0 | 0.0 | 0.00 | 0.00 | 0.00 | 89 | 1018.2 |
| 20260903132505 | 24 | 173 | 0.0 | 0.0 | 0.00 | 0.00 | 0.00 | 89 | 1018.2 |
| 20260903132005 | 24 | 173 | 0.0 | 0.0 | 0.00 | 0.00 | 0.00 | 89 | 1018.2 |
| 20260903131505 | 24 | 173 | 0.0 | 0.0 | 0.00 | 0.00 | 0.00 | 89 | 1018.3 |
| 20260903131005 | 24 | 173 | 0.0 | 0.0 | 0.00 | 0.00 | 0.00 | 89 | 1018.3 |
| 20260903130005 | 23 | 173 | 0.0 | 0.0 | 0.00 | 0.00 | 0.00 | 89 | 1018.1 |
| 20260903125505 | 23 | 173 | 0.0 | 0.0 | 0.00 | 0.00 | 0.00 | 89 | 1018.1 |
| 20260903125005 | 23 | 173 | 0.0 | 0.0 | 0.00 | 0.00 | 0.00 | 89 | 1018.1 |
| 20260903124505 | 23 | 173 | 0.0 | 0.0 | 0.00 | 0.00 | 0.00 | 89 | 1018.0 |
| 20260903124005 | 22 | 173 | 0.0 | 0.0 | 0.00 | 0.00 | 0.00 | 89 | 1018.0 |
| 20260903123504 | 22 | 173 | 0.0 | 0.0 | 0.00 | 0.00 | 0.00 | 89 | 1018.0 |
| 20260903123005 | 22 | 173 | 0.0 | 0.0 | 0.00 | 0.00 | 0.00 | 89 | 1018.0 |
| 20260903122505 | 22 | 173 | 0.0 | 0.0 | 0.00 | 0.00 | 0.00 | 89 | 1018.0 |
| 20260903122005 | 22 | 173 | 0.0 | 0.0 | 0.00 | 0.00 | 0.00 | 89 | 1017.9 |
| 20260903121505 | 22 | 173 | 0.0 | 0.0 | 0.00 | 0.00 | 0.00 | 90 | 1017.9 |
| 20260903121005 | 22 | 173 | 0.0 | 0.0 | 0.00 | 0.00 | 0.00 | 90 | 1017.9 |
| 20260903120505 | 22 | 173 | 0.0 | 0.0 | 0.00 | 0.00 | 0.00 | 90 | 1017.9 |
| 20260903120005 | 22 | 173 | 0.0 | 0.0 | 0.00 | 0.00 | 0.00 | 90 | 1017.9 |
| 20260903115506 | 22 | 173 | 0.0 | 0.0 | 0.00 | 0.00 | 0.00 | 89 | 1017.9 |
| 20260903115006 | 22 | 173 | 0.0 | 0.0 | 0.00 | 0.00 | 0.00 | 89 | 1017.7 |
| 20260903114504 | 22 | 173 | 0.0 | 0.0 | 0.00 | 0.00 | 0.00 | 89 | 1017.7 |
| 20260903114005 | 22 | 173 | 0.0 | 0.0 | 0.00 | 0.00 | 0.00 | 90 | 1017.7 |
| 20260903113505 | 22 | 173 | 0.0 | 0.0 | 0.00 | 0.00 | 0.00 | 90 | 1017.7 |
| 20260903112505 | 22 | 173 | 0.0 | 0.0 | 0.00 | 0.00 | 0.00 | 90 | 1017.3 |
| 20260903112004 | 22 | 173 | 0.0 | 0.0 | 0.00 | 0.00 | 0.00 | 90 | 1017.3 |
| 20260903111006 | 22 | 173 | 0.0 | 0.0 | 0.00 | 0.00 | 0.00 | 90 | 1017.3 |
| 20260903110506 | 22 | 173 | 0.0 | 0.0 | 0.00 | 0.00 | 0.00 | 89 | 1017.3 |
| 20260903110005 | 22 | 173 | 0.0 | 0.0 | 0.00 | 0.00 | 0.00 | 89 | 1016.9 |
| 20260903104504 | 22 | 173 | 0.0 | 0.0 | 0.00 | 0.00 | 0.00 | 89 | 1016.9 |
| 20260903104006 | 22 | 173 | 0.0 | 0.0 | 0.00 | 0.00 | 0.00 | 89 | 1016.9 |
| 20260903103505 | 22 | 173 | 0.0 | 0.0 | 0.00 | 0.00 | 0.00 | 89 | 1016.9 |
| 20260903103005 | 22 | 173 | 0.0 | 0.0 | 0.00 | 0.00 | 0.00 | 89 | 1016.9 |
| 20260903102505 | 22 | 173 | 0.0 | 0.0 | 0.00 | 0.00 | 0.00 | 89 | 1016.9 |
| 20260903101505 | 22 | 173 | 0.0 | 0.0 | 0.00 | 0.00 | 0.00 | 90 | 1016.8 |
| 20260903100005 | 22 | 173 | 0.0 | 1.6 | 0.00 | 0.00 | 0.00 | 89 | 1017.0 |
| 20260903095505 | 22 | 173 | 0.0 | 1.6 | 0.00 | 0.00 | 0.00 | 89 | 1017.0 |
| 20260903095005 | 22 | 173 | 0.0 | 0.0 | 0.00 | 0.00 | 0.00 | 89 | 1017.0 |
| 20260903094504 | 22 | 173 | 0.0 | 0.0 | 0.00 | 0.00 | 0.00 | 89 | 1017.0 |
| 20260903093505 | 22 | 173 | 0.0 | 0.0 | 0.00 | 0.00 | 0.00 | 89 | 1017.0 |
| 20260903093005 | 22 | 173 | 0.0 | 0.0 | 0.00 | 0.00 | 0.00 | 89 | 1017.1 |
| 20260903092005 | 22 | 173 | 0.0 | 0.0 | 0.00 | 0.00 | 0.00 | 89 | 1017.1 |
| 20260903090505 | 22 | 173 | 0.0 | 0.0 | 0.00 | 0.00 | 0.00 | 89 | 1017.0 |
| 20260903090006 | 22 | 173 | 0.0 | 0.0 | 0.00 | 0.00 | 0.00 | 89 | 1017.1 |
| 20260903085505 | 22 | 173 | 0.0 | 0.0 | 0.00 | 0.00 | 0.00 | 89 | 1017.1 |
| 20260903085005 | 22 | 173 | 0.0 | 0.0 | 0.00 | 0.00 | 0.00 | 89 | 1017.0 |
| 20260903084504 | 23 | 173 | 0.0 | 0.0 | 0.00 | 0.00 | 0.00 | 89 | 1017.1 |
| 20260903084005 | 23 | 173 | 0.0 | 0.0 | 0.00 | 0.00 | 0.00 | 89 | 1017.1 |
| 20260903083504 | 23 | 173 | 0.0 | 0.0 | 0.00 | 0.00 | 0.00 | 89 | 1017.1 |
| 20260903083005 | 23 | 173 | 0.0 | 0.0 | 0.00 | 0.00 | 0.00 | 89 | 1016.9 |
| 20260903082505 | 23 | 173 | 0.0 | 0.0 | 0.00 | 0.00 | 0.00 | 89 | 1016.9 |
| 20260903082005 | 23 | 173 | 0.0 | 0.0 | 0.00 | 0.00 | 0.00 | 89 | 1016.9 |
| 20260903081006 | 23 | 173 | 0.0 | 0.0 | 0.00 | 0.00 | 0.00 | 89 | 1016.9 |
| 20260903080505 | 23 | 173 | 0.0 | 0.0 | 0.00 | 0.00 | 0.00 | 89 | 1016.9 |
| 20260903080004 | 23 | 173 | 0.0 | 0.0 | 0.00 | 0.00 | 0.00 | 89 | 1016.9 |
| 20260903075506 | 23 | 173 | 0.0 | 0.0 | 0.00 | 0.00 | 0.00 | 89 | 1016.9 |
| 20260903075005 | 23 | 173 | 0.0 | 0.0 | 0.00 | 0.00 | 0.00 | 89 | 1016.9 |
| 20260903074505 | 23 | 173 | 0.0 | 0.0 | 0.00 | 0.00 | 0.00 | 89 | 1016.9 |
| 20260903073506 | 23 | 173 | 0.0 | 0.0 | 0.00 | 0.00 | 0.00 | 89 | 1016.9 |
| 20260903073005 | 23 | 173 | 0.0 | 0.0 | 0.00 | 0.00 | 0.00 | 89 | 1016.9 |
| 20260903072505 | 23 | 173 | 0.0 | 0.0 | 0.00 | 0.00 | 0.00 | 89 | 1016.9 |
| 20260903072005 | 23 | 173 | 0.0 | 0.0 | 0.00 | 0.00 | 0.00 | 89 | 1016.9 |
| 20260903071504 | 23 | 173 | 0.0 | 0.0 | 0.00 | 0.00 | 0.00 | 89 | 1016.9 |
| 20260903071005 | 23 | 173 | 0.0 | 0.0 | 0.00 | 0.00 | 0.00 | 89 | 1016.9 |
| 20260903070505 | 23 | 173 | 0.0 | 0.0 | 0.00 | 0.00 | 0.00 | 89 | 1016.9 |
| 20260903070006 | 23 | 173 | 0.0 | 0.0 | 0.00 | 0.00 | 0.00 | 89 | 1016.9 |
| 20260903065505 | 23 | 173 | 0.0 | 0.0 | 0.00 | 0.00 | 0.00 | 89 | 1016.9 |
| 20260903065005 | 23 | 173 | 0.0 | 0.0 | 0.00 | 0.00 | 0.00 | 89 | 1016.8 |
| 20260903064505 | 23 | 173 | 0.0 | 0.0 | 0.00 | 0.00 | 0.00 | 89 | 1016.8 |
| 20260903064006 | 23 | 173 | 0.0 | 1.6 | 0.00 | 0.00 | 0.00 | 88 | 1016.8 |
| 20260903063505 | 23 | 173 | 0.0 | 0.0 | 0.00 | 0.00 | 0.00 | 88 | 1016.8 |
| 20260903063005 | 23 | 173 | 0.0 | 0.0 | 0.00 | 0.00 | 0.00 | 88 | 1016.8 |
| 20260903062504 | 23 | 173 | 0.0 | 0.0 | 0.00 | 0.00 | 0.00 | 88 | 1016.8 |
| 20260903062006 | 23 | 173 | 0.0 | 0.0 | 0.00 | 0.00 | 0.00 | 88 | 1016.9 |
| 20260903061505 | 24 | 173 | 0.0 | 0.0 | 0.00 | 0.00 | 0.00 | 88 | 1017.0 |
| 20260903061005 | 24 | 173 | 0.0 | 0.0 | 0.00 | 0.00 | 0.00 | 88 | 1017.0 |
| 20260903060505 | 24 | 173 | 0.0 | 0.0 | 0.00 | 0.00 | 0.00 | 88 | 1017.0 |
| 20260903060005 | 24 | 173 | 0.0 | 0.0 | 0.00 | 0.00 | 0.00 | 88 | 1016.9 |
| 20260903055505 | 24 | 173 | 0.0 | 0.0 | 0.00 | 0.00 | 0.00 | 88 | 1016.9 |
| 20260903054505 | 24 | 173 | 0.0 | 0.0 | 0.00 | 0.00 | 0.00 | 88 | 1016.9 |
| 20260903054005 | 24 | 173 | 0.0 | 0.0 | 0.00 | 0.00 | 0.00 | 88 | 1017.1 |
| 20260903053505 | 24 | 173 | 0.0 | 0.0 | 0.00 | 0.00 | 0.00 | 88 | 1017.1 |
| 20260903053005 | 24 | 173 | 0.0 | 0.0 | 0.00 | 0.00 | 0.00 | 88 | 1017.2 |
| 20260903052505 | 24 | 173 | 0.0 | 0.0 | 0.00 | 0.00 | 0.00 | 88 | 1017.2 |
| 20260903052005 | 24 | 173 | 0.0 | 0.0 | 0.00 | 0.00 | 0.00 | 88 | 1017.2 |
| 20260903051505 | 25 | 173 | 0.0 | 0.0 | 0.00 | 0.00 | 0.00 | 88 | 1017.3 |
| 20260903050505 | 25 | 173 | 0.0 | 0.0 | 0.00 | 0.00 | 0.00 | 88 | 1017.3 |
| 20260903050005 | 25 | 173 | 0.0 | 0.0 | 0.00 | 0.00 | 0.00 | 87 | 1017.3 |
| 20260903045505 | 25 | 173 | 0.0 | 0.0 | 0.00 | 0.00 | 0.00 | 87 | 1017.3 |
| 20260903045005 | 25 | 173 | 0.0 | 0.0 | 0.00 | 0.00 | 0.00 | 87 | 1017.3 |
| 20260903044504 | 25 | 173 | 0.0 | 0.0 | 0.00 | 0.00 | 0.00 | 87 | 1017.3 |
| 20260903044005 | 25 | 173 | 0.0 | 0.0 | 0.00 | 0.00 | 0.00 | 87 | 1017.3 |
| 20260903043505 | 25 | 173 | 0.0 | 0.0 | 0.00 | 0.00 | 0.00 | 87 | 1017.3 |
| 20260903043005 | 25 | 173 | 0.0 | 1.6 | 0.00 | 0.00 | 0.00 | 87 | 1017.3 |
| 20260903041505 | 25 | 173 | 0.0 | 0.0 | 0.00 | 0.00 | 0.00 | 87 | 1017.3 |
| 20260903041005 | 25 | 173 | 0.0 | 0.0 | 0.00 | 0.00 | 0.00 | 86 | 1017.4 |
| 20260903040505 | 25 | 173 | 0.0 | 0.0 | 0.00 | 0.00 | 0.00 | 86 | 1017.4 |
| 20260903040004 | 25 | 173 | 0.0 | 0.0 | 0.00 | 0.00 | 0.00 | 86 | 1017.3 |
| 20260903035505 | 25 | 173 | 0.0 | 0.0 | 0.00 | 0.00 | 0.00 | 86 | 1017.3 |
| 20260903035005 | 25 | 173 | 0.0 | 0.0 | 0.00 | 0.00 | 0.00 | 86 | 1017.3 |
| 20260903034504 | 25 | 173 | 0.0 | 0.0 | 0.00 | 0.00 | 0.00 | 86 | 1017.3 |
| 20260903033005 | 26 | 173 | 0.0 | 0.0 | 0.00 | 0.00 | 0.00 | 86 | 1017.3 |
| 20260903032506 | 26 | 173 | 0.0 | 1.6 | 0.00 | 0.00 | 0.00 | 85 | 1017.3 |
| 20260903032004 | 26 | 173 | 1.6 | 4.8 | 0.00 | 0.00 | 0.00 | 85 | 1017.3 |
| 20260903031506 | 26 | 224 | 0.0 | 0.0 | 0.00 | 0.00 | 0.00 | 85 | 1017.3 |
| 20260903031006 | 26 | 224 | 0.0 | 0.0 | 0.00 | 0.00 | 0.00 | 85 | 1017.4 |
| 20260903030506 | 26 | 224 | 0.0 | 0.0 | 0.00 | 0.00 | 0.00 | 84 | 1017.4 |
| 20260903025504 | 26 | 224 | 0.0 | 0.0 | 0.00 | 0.00 | 0.00 | 84 | 1017.4 |
| 20260903025005 | 26 | 224 | 0.0 | 0.0 | 0.00 | 0.00 | 0.00 | 84 | 1017.4 |
| 20260903024505 | 26 | 224 | 0.0 | 0.0 | 0.00 | 0.00 | 0.00 | 84 | 1017.4 |
| 20260903024005 | 26 | 224 | 0.0 | 0.0 | 0.00 | 0.00 | 0.00 | 84 | 1017.4 |
| 20260903023505 | 27 | 224 | 0.0 | 3.2 | 0.00 | 0.00 | 0.00 | 84 | 1017.4 |
| 20260903023004 | 27 | 224 | 1.6 | 3.2 | 0.00 | 0.00 | 0.00 | 83 | 1017.4 |
| 20260903022505 | 27 | 224 | 0.0 | 3.2 | 0.00 | 0.00 | 0.00 | 83 | 1017.4 |
| 20260903022005 | 27 | 110 | 0.0 | 3.2 | 0.00 | 0.00 | 0.00 | 82 | 1017.3 |
| 20260903021505 | 27 | 107 | 0.0 | 0.0 | 0.00 | 0.00 | 0.00 | 82 | 1017.3 |
| 20260903021006 | 27 | 107 | 0.0 | 0.0 | 0.00 | 0.00 | 0.00 | 82 | 1017.3 |
| 20260903020505 | 27 | 107 | 0.0 | 0.0 | 0.00 | 0.00 | 0.00 | 82 | 1017.3 |
| 20260903020004 | 27 | 107 | 0.0 | 0.0 | 0.00 | 0.00 | 0.00 | 81 | 1017.3 |
| 20260903015505 | 27 | 107 | 0.0 | 0.0 | 0.00 | 0.00 | 0.00 | 81 | 1017.3 |
| 20260903015005 | 27 | 107 | 0.0 | 0.0 | 0.00 | 0.00 | 0.00 | 81 | 1016.9 |
| 20260903014505 | 28 | 107 | 0.0 | 1.6 | 0.00 | 0.00 | 0.00 | 81 | 1016.9 |
| 20260903014005 | 28 | 107 | 0.0 | 0.0 | 0.00 | 0.00 | 0.00 | 80 | 1016.9 |
| 20260903013505 | 28 | 107 | 0.0 | 0.0 | 0.00 | 0.00 | 0.00 | 80 | 1016.9 |
| 20260903013004 | 28 | 107 | 0.0 | 0.0 | 0.00 | 0.00 | 0.00 | 80 | 1016.8 |
| 20260903012005 | 28 | 107 | 0.0 | 0.0 | 0.00 | 0.00 | 0.00 | 79 | 1016.6 |
| 20260903011506 | 28 | 107 | 0.0 | 0.0 | 0.00 | 0.00 | 0.00 | 78 | 1016.6 |
| 20260903011006 | 29 | 107 | 0.0 | 0.0 | 0.00 | 0.00 | 0.00 | 78 | 1016.6 |
| 20260903010504 | 29 | 107 | 0.0 | 0.0 | 0.00 | 0.00 | 0.00 | 77 | 1016.6 |
| 20260903005505 | 30 | 107 | 0.0 | 0.0 | 0.00 | 0.00 | 0.00 | 76 | 1016.4 |
| 20260903004505 | 30 | 107 | 0.0 | 0.0 | 0.00 | 0.00 | 0.00 | 75 | 1016.4 |
| 20260903004005 | 30 | 107 | 0.0 | 0.0 | 0.00 | 0.00 | 0.00 | 74 | 1016.3 |
| 20260903003505 | 30 | 107 | 0.0 | 0.0 | 0.00 | 0.00 | 0.00 | 74 | 1016.3 |
| 20260903003006 | 30 | 107 | 0.0 | 0.0 | 0.00 | 0.00 | 0.00 | 73 | 1016.3 |
| 20260903002505 | 31 | 107 | 0.0 | 0.0 | 0.00 | 0.00 | 0.00 | 73 | 1016.3 |
| 20260903002006 | 31 | 107 | 0.0 | 1.6 | 0.00 | 0.00 | 0.00 | 72 | 1016.3 |
| 20260903001505 | 31 | 107 | 0.0 | 0.0 | 0.00 | 0.00 | 0.00 | 72 | 1016.3 |
| 20260903001005 | 31 | 107 | 0.0 | 0.0 | 0.00 | 0.00 | 0.00 | 72 | 1016.3 |
| 20260903000505 | 32 | 107 | 0.0 | 0.0 | 0.00 | 0.00 | 0.00 | 71 | 1016.3 |
| 20260903000005 | 32 | 107 | 0.0 | 0.0 | 0.00 | 0.00 | 0.00 | 70 | 1016.2 |
| 20260902235504 | 32 | 107 | 0.0 | 0.0 | 0.00 | 0.00 | 0.00 | 69 | 1016.2 |
| 20260902235005 | 32 | 107 | 0.0 | 0.0 | 0.00 | 0.00 | 0.00 | 68 | 1016.3 |
| 20260902234506 | 33 | 107 | 0.0 | 0.0 | 0.00 | 0.00 | 0.00 | 67 | 1016.3 |
| 20260902234005 | 33 | 107 | 0.0 | 0.0 | 0.00 | 0.00 | 0.00 | 66 | 1016.3 |